Location: Sun City Center
(27.6996°N, 82.3528°W)
Time: 13:27:37
(UTC-04:00)

Cosmos 2084 Rocket - Visible Passes

Search period start: 16 September 2014 00:00
Search period end: 26 September 2014 00:00
Orbit: 553 x 644 km, 62.8° (Epoch: 15 September)

Date Brightness Start Highest point End Pass type
(mag) Time Alt. Az. Time Alt. Az. Time Alt. Az.
16 Sep 4.9 05:27:39 10° NNW 05:31:57 41° ENE 05:36:18 10° SE visible
16 Sep 6.5 21:08:22 10° W 21:10:25 13° NW 21:12:28 10° NNW visible
17 Sep 3.6 05:38:25 12° NNW 05:42:36 85° ENE 05:47:13 10° SSE visible
18 Sep 6.7 04:15:27 12° E 04:15:27 12° E 04:15:58 10° E visible
18 Sep 3.8 05:52:22 41° W 05:53:10 46° WSW 05:57:34 10° S visible
18 Sep 5.0 19:47:56 10° SW 19:51:47 39° WNW 19:55:44 10° NNE visible
19 Sep 5.3 06:05:49 16° SSW 06:05:49 16° SSW 06:07:14 10° SSW visible
19 Sep 6.2 19:59:30 10° WSW 20:02:32 20° NW 20:05:37 10° N visible
20 Sep 6.9 20:13:14 10° NW 20:13:25 10° NW 20:13:36 10° NW visible
